Home   Weather   Seymour Island   Past weeks
Flag for Antarctica

Past Weather in Seymour Island, Antarctica — Yesterday and Last 2 Weeks

Now
-16 °F

Ice fog.


Feels Like: -54 °F
Forecast: -12 / -14 °F
Wind: 51 mph from Southwest

Location: Base Marambio Centro Met. Antartico
Current Time: Aug 12, 2020 at 12:38:05 am
Latest Report: Aug 11, 2020 at 11:00 pm
Visibility: 0 mi
Pressure29.83 "Hg
Humidity: 77%
Dew Point: -21 °F
Location of Seymour IslandLocation

Past Weather in Seymour Island — Graph

°F

Seymour Island Temperature Yesterday

Maximum temperature yesterday: -14 °F (at 2:00 pm)
Minimum temperature yesterday: -17 °F (at 12:00 am)
Average temperature yesterday: -15 °F

High & Low Weather Summary for the Past Weeks

 TemperatureHumidityPressure
High31 °F (Aug 5, 12:00 pm)99% (Aug 5, 8:00 am)29.86 "Hg (Aug 5, 8:00 am)
Low-17 °F (Aug 8, 10:00 pm)23% (Jul 31, 3:00 pm)28.76 "Hg (Jul 29, 2:00 pm)
Average1 °F82%29.35 "Hg
* Reported Jul 27 10:00 pm — Aug 11 10:00 pm, Seymour Island. Weather by CustomWeather, © 2020

Note: Actual official high and low records may vary slightly from our data, if they occured in-between our weather recording intervals... More about our weather records

Seymour Island Weather History for the Previous 24 Hours

Scroll right to see more
 ConditionsComfort  
Time TempWeatherWind HumidityBarometerVisibility
10:00 pm
Tue, Aug 11
-16 °FIce fog.50 mph77%29.83 "Hg0 mi
9:00 pm-16 °FIce fog.47 mph77%29.85 "Hg0 mi
8:00 pm-16 °FIce fog.52 mph77%29.84 "Hg0 mi
7:00 pm-16 °FIce fog.52 mph77%29.83 "Hg0 mi
6:00 pm-15 °FIce fog.52 mph77%29.83 "Hg0 mi
5:00 pm-15 °FIce fog.52 mph77%29.83 "Hg0 mi
4:00 pm-15 °FIce fog.53 mph77%29.82 "Hg0 mi
3:00 pm-14 °FIce fog.51 mph78%29.83 "Hg0 mi
2:00 pm-14 °FIce fog.47 mph78%29.83 "Hg0 mi
1:00 pm-14 °FIce fog.52 mph78%29.85 "Hg0 mi
12:00 pm-14 °FIce fog.50 mph78%29.85 "Hg0 mi
11:00 am-14 °FIce fog.48 mph78%29.86 "Hg0 mi
10:00 am-15 °FIce fog.46 mph78%29.85 "Hg0 mi
9:00 am-14 °FIce fog.46 mph78%29.84 "Hg0 mi
8:00 am-16 °FIce fog.47 mph77%29.83 "Hg0 mi
7:00 am-16 °FIce fog.50 mph77%29.81 "Hg0 mi
6:00 am-16 °FIce fog.51 mph77%29.81 "Hg0 mi
5:00 am-16 °FIce fog.55 mph77%29.79 "Hg0 mi
4:00 am-16 °FFog.43 mph77%29.81 "Hg0 mi
2:00 am-15 °FFog.43 mph77%29.80 "Hg0 mi
1:00 am-16 °FOvercast.41 mph77%29.79 "Hg0 mi
12:00 am-17 °FOvercast.38 mph77%29.79 "Hg0 mi
Weather by CustomWeather, © 2020

See weather overview